Time,TemperatureF,DewpointF,PressureIn,WindDirection,WindDirectionDegrees,WindSpeedMPH,WindSpeedGustMPH,Humidity,HourlyPrecipIn,Conditions,Clouds,dailyrainin,SolarRadiationWatts/m^2,SoftwareType,DateUTC
2013-08-19 01:00:00,57.0,29.0,-100.00,South,171,3.0,8.0,34,-99.99,,,0.00,-0.200000,,2013-08-19 08:00:00,
2013-08-19 01:52:00,57.0,29.0,-100.00,South,171,3.0,8.0,34,-99.99,,,0.00,-0.200000,,2013-08-19 08:52:00,
2013-08-19 03:00:00,57.0,21.0,-100.00,SW,215,4.0,7.0,25,-99.99,,,-99.99,-0.200000,,2013-08-19 10:00:00,
2013-08-19 03:52:00,57.0,21.0,-100.00,SW,215,4.0,7.0,25,-99.99,,,-99.99,-0.200000,,2013-08-19 10:52:00,
2013-08-19 04:00:00,56.0,28.0,-100.00,SW,232,6.0,9.0,34,-99.99,,,-99.99,-0.200000,,2013-08-19 11:00:00,
2013-08-19 04:52:00,56.0,28.0,-100.00,SW,232,6.0,9.0,34,-99.99,,,-99.99,-0.200000,,2013-08-19 11:52:00,
2013-08-19 07:00:00,55.0,40.0,-100.00,SSW,206,2.0,6.0,57,-99.99,,,-99.99,12.500000,,2013-08-19 14:00:00,
2013-08-19 07:52:00,55.0,40.0,-100.00,SSW,206,2.0,6.0,57,-99.99,,,-99.99,12.500000,,2013-08-19 14:52:00,
2013-08-19 09:00:00,59.0,44.0,-100.00,WNW,297,5.0,9.0,58,-99.99,,,-99.99,330.299988,,2013-08-19 16:00:00,
2013-08-19 10:00:00,60.0,43.0,-100.00,SE,146,5.0,9.0,54,-99.99,,,0.00,555.400024,,2013-08-19 17:00:00,
2013-08-19 10:57:00,60.0,43.0,-100.00,SE,146,5.0,9.0,54,-99.99,,,0.00,555.400024,,2013-08-19 17:57:00,
2013-08-19 11:00:00,-999.0,-99.9,-100.00,SSE,163,5.0,8.0,52,-99.99,,,-99.99,,,2013-08-19 18:00:00,
2013-08-19 12:00:00,62.0,43.0,-100.00,South,173,5.0,9.0,49,-99.99,,,0.00,792.299988,,2013-08-19 19:00:00,
2013-08-19 12:59:00,62.0,43.0,-100.00,South,173,5.0,9.0,49,-99.99,,,0.00,792.299988,,2013-08-19 19:59:00,
2013-08-19 13:00:00,-999.0,-99.9,-100.00,South,187,4.0,7.0,-999,-99.99,,,-99.99,,,2013-08-19 20:00:00,
2013-08-19 16:00:00,63.0,35.0,-100.00,SW,226,6.0,12.0,36,-99.99,,,0.00,694.299988,,2013-08-19 23:00:00,
2013-08-19 16:55:00,63.0,35.0,-100.00,SW,226,6.0,12.0,36,-99.99,,,0.00,694.299988,,2013-08-19 23:55:00,
2013-08-19 17:00:00,62.0,38.0,-100.00,SSW,209,5.0,10.0,41,-99.99,,,0.00,557.599976,,2013-08-20 00:00:00,
2013-08-19 17:52:00,62.0,38.0,-100.00,SSW,209,5.0,10.0,41,-99.99,,,0.00,557.599976,,2013-08-20 00:52:00,
2013-08-19 18:00:00,61.0,38.0,-100.00,South,179,4.0,7.0,43,-99.99,,,0.00,393.600006,,2013-08-20 01:00:00,
2013-08-19 18:52:00,61.0,38.0,-100.00,South,179,4.0,7.0,43,-99.99,,,0.00,393.600006,,2013-08-20 01:52:00,
2013-08-19 21:00:00,52.0,40.0,-100.00,East,90,4.0,6.0,63,-99.99,,,0.01,0.700000,,2013-08-20 04:00:00,
2013-08-19 21:53:00,52.0,40.0,-100.00,East,90,4.0,6.0,63,-99.99,,,0.01,0.700000,,2013-08-20 04:53:00,
2013-08-19 22:00:00,53.0,37.0,-100.00,West,266,4.0,7.0,55,-99.99,,,0.01,-0.200000,,2013-08-20 05:00:00,
2013-08-19 22:52:00,53.0,37.0,-100.00,West,266,4.0,7.0,55,-99.99,,,0.01,-0.200000,,2013-08-20 05:52:00,